Regional Weather Roundup
Issued by NWS

Home | Current Version | Previous Version | Text Only | Print | Product List | Glossary On
Versions: 1 2 3 4 5 6 7 8 9 10 11 12 13 14 15 16 17 18 19 20 21 22 23 24 25 26 27 28 29 30 31 32 33 34 35 36 37 38 39 40 41 42 43 44 45 46 47 48 49 50
000
ASUS43 KTOP 011808
RWRKS

WEATHER ROUNDUP FOR KANSAS
NATIONAL WEATHER SERVICE GOODLAND KS
100 PM CDT SAT OCT 01 2016

NOTE:  "FAIR" INDICATES FEW OR NO CLOUDS BELOW 12,000 FEET WITH NO
SIGNIFICANT WEATHER AND/OR OBSTRUCTIONS TO VISIBILITY.

KSZ001>006-013>018-027>032-041>047-011900-
NORTHWEST KANSAS

CITY           SKY/WX    TMP DP  RH WIND       PRES   REMARKS
GOODLAND       SUNNY     71  49  45 SE10      30.09F
6HR MIN TEMP:  44; 6HR MAX TEMP:  71;

HAYS           CLOUDY    73  46  38 SE9       30.09F
HILL CITY      CLOUDY    72  50  45 SE9       30.10F
6HR MIN TEMP:  43; 6HR MAX TEMP:  73;

RUSSELL        SUNNY     73  47  39 SE9       30.09F
6HR MIN TEMP:  50; 6HR MAX TEMP:  73;

$$

KSZ061>065-074>080-084>089-011900-
SOUTHWEST KANSAS

CITY           SKY/WX    TMP DP  RH WIND       PRES   REMARKS
DODGE CITY     SUNNY     77  50  38 S14       30.08F
6HR MIN TEMP:  56; 6HR MAX TEMP:  77;

ELKHART          N/A     79  54  42 N5          N/A
GARDEN CITY    SUNNY     75  51  43 S13G24    30.05F
6HR MIN TEMP:  53; 6HR MAX TEMP:  75;

GREAT BEND     SUNNY     73  48  40 SE7       30.08F
LIBERAL        MOSUNNY   72  52  49 S8        30.08F
PRATT          MOSUNNY   72  47  41 S12       30.09F
6HR MIN TEMP:  53; 6HR MAX TEMP:  72;

$$

KSZ066>073-081>083-090>101-011900-
SOUTHEAST KANSAS

CITY           SKY/WX    TMP DP  RH WIND       PRES   REMARKS
CHANUTE        MOSUNNY   73  53  49 W7        30.11F
6HR MIN TEMP:  48; 6HR MAX TEMP:  73;

COFFEYVILLE    SUNNY     75  51  43 N5        30.10F
6HR MIN TEMP:  48; 6HR MAX TEMP:  75;

HUTCHINSON     SUNNY     74  48  39 VRB3      30.10F
6HR MIN TEMP:  48; 6HR MAX TEMP:  74;

MEDICINE LODGE   N/A     73  49  42 S8G17     30.08F
NEWTON         SUNNY     72  50  45 S7        30.12F
PARSONS        MOSUNNY   76  50  40 CALM      30.11F
6HR MIN TEMP:  46; 6HR MAX TEMP:  76; 6HR PCP: TRACE;

WICHITA INTL   MOSUNNY   74  51  44 S10       30.10F
6HR MIN TEMP:  54; 6HR MAX TEMP:  74;

WICHITA JABRA  SUNNY     72  52  49 S3        30.11F
6HR MIN TEMP:  51; 6HR MAX TEMP:  73;

WICHITA MCCONL SUNNY     74  50  43 SW7       30.11F
WINFIELD       SUNNY     75  52  44 S7        30.11F
6HR MIN TEMP:  52; 6HR MAX TEMP:  75;

$$

KSZ007>012-019>026-033>040-048>060-102>105-011900-
NORTHEAST KANSAS

CITY           SKY/WX    TMP DP  RH WIND       PRES   REMARKS
CONCORDIA      SUNNY     72  48  42 NE3       30.11F
6HR MIN TEMP:  46; 6HR MAX TEMP:  72;

EMPORIA        SUNNY     71  49  45 CALM      30.11F
6HR MIN TEMP:  49; 6HR MAX TEMP:  72;

LAWRENCE       PTSUNNY   68  56  65 N3        30.11F
6HR MIN TEMP:  47; 6HR MAX TEMP:  68;

MANHATTAN      SUNNY     71  55  56 NE7       30.11F
6HR MIN TEMP:  47; 6HR MAX TEMP:  71;

MARYSVILLE     MOSUNNY   68  54  60 N3        30.12F
OLATHE IND     PTSUNNY   67  55  65 NW3       30.12F
6HR MIN TEMP:  50; 6HR MAX TEMP:  68;

OLATHE EXE     PTSUNNY   67  53  61 N5        30.11F
6HR MIN TEMP:  52; 6HR MAX TEMP:  68;

SALINA         SUNNY     75  49  39 VRB6      30.11F
6HR MIN TEMP:  50; 6HR MAX TEMP:  75;

TOPEKA BILLARD CLOUDY    71  57  61 VRB6      30.12F
6HR MIN TEMP:  49; 6HR MAX TEMP:  71;

TOPEKA FORBES  CLOUDY    69  57  65 N5        30.12F
6HR MIN TEMP:  50; 6HR MAX TEMP:  69;

$$



USA.gov is the U.S. government's official web portal to all federal, state and local government web resources and services.